Track ORBCOMM FM117 now! 10-day predictions ORBCOMM FM117 is classified as:
1 41188U 15081K 21027.18285596 .00000011 00000-0 40780-4 0 9998 2 41188 47.0015 84.4384 0003365 214.9291 145.1373 14.54860622273461